Regional Weather Roundup
Issued by NWS Lake Charles, LA

Home | Current Version | Previous Version | Text Only | Print | Product List | Glossary On
Versions: 1 2 3 4 5 6 7 8 9 10 11 12 13 14 15 16 17 18 19 20 21 22 23 24 25 26 27 28 29 30 31 32 33 34 35 36 37 38 39 40 41 42 43 44 45 46 47 48 49 50
000
ASUS44 KLCH 121610
RWRLCH
REGIONAL WEATHER ROUNDUP
NATIONAL WEATHER SERVICE LAKE CHARLES LA
1000 AM CST FRI FEB 12 2016

Note: "fair" indicates few or no clouds below 12,000 feet with no
significant weather and/or obstructions to visibility.


ACROSS SOUTHEAST TEXAS

CITY           SKY/WX    TMP DP  RH WIND       PRES   REMARKS
BEAUMONT       SUNNY     67  62  84 W13       30.26R
BEAUMONT CITY  FAIR      67  60  79 W9G17     30.27R
ORANGE         SUNNY     67  58  73 W5        30.28R
JASPER         CLOUDY    60  58  94 SW5       30.28S
$$

ACROSS CENTRAL LOUISIANA

CITY           SKY/WX    TMP DP  RH WIND       PRES   REMARKS
LEESVILLE      NOT AVBL
FULLERTON      NOT AVBL
ALEXANDRIA INT MOSUNNY   65  58  78 W14       30.25R
ESLER FIELD    PTSUNNY   69  56  62 W13       30.25S
DERIDDER         N/A     62  60  96 W10       30.28R
OAKDALE          N/A     63  60  90 W5        30.28R
OPELOUSAS      CLOUDY    59  59  99 NW6       30.29R
$$

ACROSS SOUTHWEST AND SOUTH CENTRAL LOUISIANA

CITY           SKY/WX    TMP DP  RH WIND       PRES   REMARKS
SULPHUR        SUNNY     63  63 100 MISG      30.27S
LAKE CHARLES   SUNNY     67  60  78 W7        30.27R
CHENNAULT INT  MOSUNNY   64  61  88 W12       30.27R
CAMERON PHI    SUNNY     64  61  88 SW9       30.30R
DEQUINCY       CLOUDY    60  60 100 CALM      30.27R
JENNINGS       FAIR      63  63 100 W9        30.27S
LAFAYETTE      MOSUNNY   67  60  78 W12       30.28R
NEW IBERIA     PTSUNNY   66  60  81 W12       30.29R
ABBEVILLE      FAIR      66  61  82 W13       30.28R
PATTERSON      MOSUNNY   68  57  68 W14G20    30.30R
SALT POINT       N/A     61  58  90 SW5       30.28R
$$

SELECTED SITES ACROSS THE REGION

CITY           SKY/WX    TMP DP  RH WIND       PRES   REMARKS
HOUSTON BUSH   MOSUNNY   63  58  83 SW9       30.26S
HOUSTON HOBBY  MOSUNNY   67  59  75 SW10      30.26R
GALVESTON      SUNNY     68  63  84 SW10      30.27R
COLLEGE STAT   MOSUNNY   62  58  86 SW15      30.24R
CONROE         CLOUDY    61  58  90 SW9G16    30.26R
HUNTSVILLE     PTSUNNY   63  57  81 SW13G20   30.25R
LUFKIN         MOSUNNY   63  56  78 VRB5      30.25R
SHREVEPORT     SUNNY     53  34  48 CALM      30.26R
MONROE         SUNNY     50  35  56 CALM      30.28R
NATCHEZ MS     CLOUDY    63  54  72 W13       30.26S
BATON ROUGE    CLOUDY    61  58  90 W10       30.29R FOG
N.O. INTL ARPT MOSUNNY   70  58  65 W14       30.28R
SLIDELL        CLOUDY    64  60  87 NW8       30.27R
$$

MARINE REPORTS

STATION/POSITION TIME  SKY/WX   TEMP    WIND        PRES    VSBY
                                AIR SEA DIR/SP/G
                 (UTC)          (F)     (DEG/KT/KT) (MB)    (MI)
BUOY 30 S HIGH I 1550            62 59  200/  4/  6 1024.9R
WVE H/P(F/S)=  3/ 7

SEA RIM ST PARK  1600            63     210/  4/  7 1025.5R
PORT ARTHUR      1500               56  230/  6/  8 1024.6R
SABINE PASS N    1500            65 57  240/  5/ 11 1025.7R
TEXAS POINT      NOT AVBL
CALCASIEU PASS   1500            61 58  250/  6/  7 1023.8R
LK CHARLES BEACH 1500            60 57              1024.8R
MARSH ISLAND     NOT AVBL
FRESH WATER LOCK 1500            64 59  220/  8/ 11 1024.6R
AMERADA PASS     1500            63 51  210/  3/  8 1025.0R
$$



USA.gov is the U.S. government's official web portal to all federal, state and local government web resources and services.